[[{"header":{"parameterUnit":"m.s-1","parameterCategory":1,"la1":30.2991,"la2":30.254,"lo1":-89.0895,"lo2":-89.0444,"dy":0.0017,"dx":0.0017,"nx":28,"ny":28,"refTime":"2025-08-24T03:00:00:Z","depth":0,"parameterNumber":2,"parameterNumberName":"U-component_of_WINDS"},"data":[0,0,0,0,0,0,0,0,0,0,0,0,0,0,0,0,0,0,0,0,0,0,0,0,0,0,0,0,0,0,0,0,0,0,0,0,0,0,0,0,0,0,0,0,0,0,0,0,0,0,0,0,0,0,0,0,0,0,0.1687,0.1687,0,0.1762,0.1763,0.1764,0.1804,0.1804,0.1804,0.1804,0.1881,0.1883,0.1885,0,0,0,0,0,0,0,0,0,0,0,0,0,0.1577,0.1578,0.1686,0.1687,0.1688,0.1762,0.1763,0.1764,0.1804,0.1804,0.1804,0.1804,0.188,0.1883,0.1885,0,0,0,0,0,0,0,0,0,0,0,0,0,0.1635,0.1579,0.1686,0.1717,0.1721,0.1762,0.1763,0.1764,0.1804,0.1804,0.1804,0.1804,0.188,0.1882,0.1885,0.1901,0,0,0.1894,0.1896,0,0,0,0,0,0,0,0,0.1632,0.1639,0.1712,0.1715,0.1719,0.1774,0.1752,0.181,0.1804,0.1772,0.1804,0.1805,0.1845,0.1851,0.1865,0.1904,0.1908,0.1895,0.1896,0.1898,0.1898,0,0,0,0,0,0,0,0.1628,0.1636,0.1716,0.1713,0.1717,0.1727,0.1736,0.1763,0.1807,0.1775,0.1778,0.1787,0.1847,0.1862,0.1867,0.1909,0.1895,0.1897,0.1899,0.19,0.1965,0.1965,0,0,0,0,0,0,0.1619,0.1633,0.1714,0.1719,0.1675,0.1729,0.1739,0.1756,0.1807,0.1815,0.1787,0.1788,0.1857,0.1863,0.187,0.1891,0.1898,0.19,0.1902,0.1965,0.1965,0.1965,0,0,0,0,0,0,0.1616,0.1626,0.1711,0.1677,0.1688,0.1731,0.175,0.1758,0.1772,0.1816,0.1823,0.1793,0.1857,0.1866,0.1893,0.1894,0.1902,0.1904,0.1965,0.1965,0.1965,0.1934,0,0,0,0,0,0,0.1613,0.1625,0.1631,0.1676,0.169,0.1733,0.175,0.1759,0.1777,0.178,0.1824,0.1832,0.1858,0.1888,0.1896,0.1898,0.1907,0.1965,0.1965,0.1965,0.1935,0.1933,0.1931,0,0,0,0,0,0.1609,0.1619,0.1631,0.1641,0.1699,0.1733,0.174,0.1771,0.1777,0.1784,0.1812,0.183,0.1893,0.1891,0.1899,0.1903,0.1965,0.1965,0.1965,0.1936,0.1933,0.1931,0,0,0,0,0,0,0.1573,0.1626,0.164,0.1665,0.1694,0.174,0.1749,0.1767,0.1795,0.1796,0.1833,0.1842,0.1866,0.1887,0.1884,0.1921,0.1931,0.1932,0.1906,0.1904,0.1902,0.1896,0.1909,0,0,0,0,0,0.1568,0.1591,0.1636,0.1654,0.1668,0.1706,0.1722,0.1743,0.1774,0.1787,0.1816,0.1846,0.1873,0.1889,0.1916,0.1938,0.1948,0.1945,0.1943,0.1941,0.1942,0.1955,0.1954,0.1964,0.1964,0.1964,0,0,0.1557,0.1589,0.1602,0.1648,0.1673,0.1696,0.1716,0.174,0.1757,0.179,0.1818,0.184,0.1876,0.1901,0.1913,0.1919,0.1941,0.1941,0.1939,0.1941,0.1955,0.1954,0.1953,0.1964,0.1964,0.1964,0,0,0.1551,0.1577,0.1595,0.162,0.1658,0.1683,0.1687,0.173,0.1746,0.1774,0.18,0.1821,0.1866,0.189,0.1908,0.1911,0.1928,0.1918,0.1907,0.192,0.1919,0.1918,0.1919,0.1919,0.1919,0.1919,0.1919,0,0.1533,0.1569,0.1602,0.1624,0.1643,0.1675,0.1693,0.1715,0.1759,0.1772,0.1778,0.1835,0.1861,0.1892,0.1892,0.1906,0.1912,0.1913,0.1916,0.1916,0.1916,0.1917,0.1917,0.1917,0.1918,0.1918,0.1918,0,0.1546,0.157,0.158,0.1622,0.1643,0.1663,0.1698,0.1715,0.1734,0.1758,0.1786,0.1819,0.1852,0.1861,0.188,0.1894,0.1897,0.1909,0.192,0.1913,0.1914,0.1915,0.1915,0.1916,0.1916,0.1917,0,0,0.1518,0.1578,0.1581,0.16,0.1644,0.1664,0.1685,0.1719,0.1732,0.1762,0.178,0.1817,0.1829,0.185,0.1871,0.1882,0.1881,0.1893,0.1895,0.189,0.1899,0.1889,0.1889,0.1894,0.1894,0.1894,0.1896,0,0.1517,0.1557,0.1587,0.1615,0.1638,0.1668,0.1687,0.1716,0.1739,0.1762,0.1788,0.1813,0.1827,0.1839,0.1851,0.1879,0.1884,0.1879,0.1911,0.1912,0.1901,0.189,0.1879,0.1879,0.1897,0.1897,0.1897,0,0.1521,0.155,0.1581,0.1622,0.1633,0.1649,0.1682,0.1703,0.1737,0.1753,0.1776,0.1798,0.1822,0.1831,0.1863,0.186,0.1874,0.189,0.1891,0.1894,0.1903,0.1893,0.188,0.188,0.1898,0.1898,0.1898,0,0.1497,0.1544,0.1568,0.1584,0.1633,0.1644,0.1664,0.1698,0.1716,0.1745,0.1757,0.1787,0.1804,0.1827,0.1858,0.1861,0.1887,0.1899,0.1901,0.19,0.1905,0.1904,0.1894,0.1915,0.1915,0.1915,0.1915,0,0.1493,0.151,0.1558,0.1573,0.1593,0.1628,0.1647,0.167,0.17,0.1719,0.1747,0.1765,0.1804,0.1827,0.1851,0.1874,0.1881,0.1895,0.1901,0.1892,0.189,0.1902,0.1903,0.1915,0.1915,0.1915,0.1915,0,0.1469,0.1502,0.1531,0.1575,0.1586,0.1599,0.1637,0.1653,0.1678,0.1702,0.171,0.1749,0.1777,0.1809,0.1848,0.1864,0.1885,0.1895,0.1874,0.1877,0.1878,0.1877,0.1875,0.1876,0.1896,0.1896,0.1895,0,0.1464,0.1479,0.1524,0.154,0.156,0.1585,0.1603,0.1637,0.1655,0.1694,0.1705,0.1735,0.1761,0.1804,0.1836,0.1866,0.1875,0.1872,0.188,0.1871,0.1875,0.1873,0.1875,0.187,0.187,0.1869,0.1869,0,0.1452,0.1467,0.1493,0.1525,0.1546,0.1572,0.16,0.1611,0.1651,0.1669,0.1699,0.1719,0.1758,0.1788,0.1821,0.1843,0.1862,0.1867,0.1869,0.186,0.1847,0.1853,0.1868,0.1866,0.1867,0.1867,0.1867,0.1867,0.1437,0.1451,0.1485,0.1513,0.1538,0.1563,0.1579,0.1607,0.1631,0.1666,0.1685,0.1714,0.1746,0.1794,0.1814,0.1837,0.1844,0.1847,0.1847,0.1848,0.1845,0.1844,0.1843,0.1843,0.1844,0.1844,0.1844,0,0.1425,0.1449,0.1474,0.1512,0.1534,0.1551,0.1583,0.1599,0.1624,0.1653,0.1678,0.1712,0.174,0.1774,0.1805,0.1817,0.1827,0.1824,0.1823,0.1827,0.1837,0.1832,0.1815,0.1815,0.1815,0.1815,0.1815,0.1815,0.1422,0.1446,0.1466,0.1502,0.1526,0.1555,0.1571,0.1594,0.1618,0.1653,0.1678,0.17,0.1731,0.1764,0.1791,0.18,0.181,0.1804,0.1816,0.1824,0.1827,0.1829,0.1825,0.1806,0.1806,0.1804,0.1804,0.1804]},{"header":{"parameterUnit":"m.s-1","parameterCategory":1,"la1":30.2991,"la2":30.254,"lo1":-89.0895,"lo2":-89.0444,"dy":0.0017,"dx":0.0017,"nx":28,"ny":28,"refTime":"2025-08-24T03:00:00:Z","depth":0,"parameterNumber":3,"parameterNumberName":"V-component_of_WINDS"},"data":[0,0,0,0,0,0,0,0,0,0,0,0,0,0,0,0,0,0,0,0,0,0,0,0,0,0,0,0,0,0,0,0,0,0,0,0,0,0,0,0,0,0,0,0,0,0,0,0,0,0,0,0,0,0,0,0,0,0,3.495,3.495,0,3.4938,3.4938,3.4938,3.4911,3.4911,3.491,3.491,3.4898,3.4898,3.4898,0,0,0,0,0,0,0,0,0,0,0,0,0,3.495,3.495,3.495,3.495,3.495,3.4938,3.4938,3.4938,3.4911,3.4911,3.491,3.4909,3.4898,3.4898,3.4898,0,0,0,0,0,0,0,0,0,0,0,0,0,3.4945,3.495,3.495,3.4935,3.4933,3.4938,3.4938,3.4938,3.4911,3.4911,3.491,3.4909,3.4898,3.4898,3.4898,3.4917,0,0,3.4899,3.4899,0,0,0,0,0,0,0,0,3.4946,3.4945,3.4937,3.4936,3.4934,3.4925,3.4934,3.4931,3.4912,3.492,3.491,3.4909,3.4908,3.4907,3.4907,3.4916,3.4916,3.4899,3.4899,3.49,3.49,0,0,0,0,0,0,0,3.4946,3.4946,3.4945,3.4937,3.4935,3.4929,3.4927,3.4933,3.4919,3.4919,3.4917,3.4916,3.4907,3.4906,3.4906,3.4916,3.4899,3.49,3.49,3.49,3.494,3.4941,0,0,0,0,0,0,3.4948,3.4946,3.4946,3.4945,3.4938,3.493,3.4928,3.4929,3.4918,3.4916,3.4917,3.4915,3.4906,3.4906,3.4906,3.4926,3.49,3.49,3.49,3.4939,3.494,3.4941,0,0,0,0,0,0,3.4948,3.4949,3.4946,3.4945,3.4944,3.4931,3.4932,3.4929,3.4929,3.4917,3.4914,3.4919,3.4906,3.4905,3.4914,3.4926,3.49,3.49,3.4938,3.4939,3.494,3.4968,0,0,0,0,0,0,3.4949,3.4949,3.4955,3.4945,3.4944,3.4955,3.4933,3.493,3.493,3.4927,3.4918,3.4916,3.4905,3.4914,3.4915,3.4926,3.49,3.4937,3.4939,3.494,3.4966,3.497,3.4974,0,0,0,0,0,3.4949,3.4964,3.4956,3.4956,3.4952,3.4955,3.4955,3.4942,3.4931,3.4937,3.4929,3.4916,3.4925,3.4915,3.4916,3.4927,3.4936,3.4938,3.494,3.4964,3.4969,3.4974,0,0,0,0,0,0,3.4975,3.4962,3.4953,3.4965,3.4962,3.4951,3.4959,3.4948,3.4947,3.4944,3.4929,3.4927,3.4938,3.4933,3.4923,3.4944,3.4928,3.493,3.4947,3.4951,3.4955,3.4955,3.4901,0,0,0,0,0,3.4982,3.4986,3.4974,3.4986,3.4985,3.4972,3.4973,3.4963,3.4959,3.4957,3.495,3.4946,3.4948,3.495,3.4951,3.4966,3.4963,3.4974,3.4978,3.4981,3.4982,3.499,3.4994,3.4947,3.4947,3.4947,0,0,3.4997,3.4991,3.4994,3.4991,3.4987,3.4991,3.4971,3.4976,3.4979,3.4958,3.4966,3.4961,3.4956,3.4968,3.4973,3.4964,3.4995,3.4983,3.4986,3.4986,3.4993,3.4997,3.5001,3.4949,3.4949,3.4948,0,0,3.5026,3.5022,3.5031,3.5028,3.5022,3.5014,3.5016,3.5007,3.5003,3.5011,3.4995,3.4999,3.5002,3.4999,3.4998,3.5027,3.5015,3.5028,3.5047,3.5055,3.5059,3.5062,3.5072,3.5076,3.503,3.503,3.503,0,3.5045,3.5051,3.5037,3.5043,3.5043,3.5025,3.5034,3.5031,3.5027,3.5027,3.5018,3.5022,3.5017,3.5028,3.5035,3.5035,3.5037,3.5028,3.5059,3.5062,3.5065,3.5074,3.5078,3.5032,3.5032,3.5031,3.5031,0,3.5074,3.5078,3.5087,3.5082,3.5083,3.509,3.5078,3.5081,3.5072,3.5064,3.5073,3.5067,3.5066,3.5068,3.5059,3.5078,3.5073,3.5062,3.5045,3.5071,3.508,3.5083,3.5034,3.5033,3.5033,3.5033,0,0,3.5118,3.5107,3.511,3.5108,3.5101,3.5104,3.5111,3.5111,3.5113,3.5111,3.5116,3.512,3.511,3.5109,3.5099,3.5106,3.5129,3.5094,3.5094,3.51,3.5149,3.5157,3.5161,3.5122,3.5122,3.5123,3.5149,0,3.5145,3.5156,3.5144,3.5158,3.5161,3.5145,3.5151,3.5148,3.5142,3.5144,3.5138,3.514,3.5127,3.5126,3.5132,3.5125,3.5139,3.5123,3.5126,3.5126,3.5127,3.5166,3.5174,3.5199,3.5153,3.5153,3.5154,0,3.5177,3.5176,3.519,3.5182,3.5183,3.5189,3.5188,3.519,3.5186,3.5182,3.5181,3.517,3.5177,3.5162,3.5171,3.5161,3.5161,3.5158,3.5159,3.5158,3.5141,3.5165,3.5207,3.521,3.5159,3.5158,3.5158,0,3.5206,3.5209,3.5217,3.5216,3.5208,3.5212,3.5209,3.5204,3.5205,3.5204,3.5205,3.5205,3.5205,3.5205,3.5195,3.5185,3.5205,3.5189,3.5201,3.5202,3.5205,3.5205,3.5247,3.5208,3.5208,3.5208,3.5207,0,3.5236,3.5245,3.523,3.5236,3.5245,3.5233,3.5243,3.5238,3.5234,3.5238,3.5225,3.5229,3.5216,3.5219,3.5211,3.5219,3.522,3.5216,3.5213,3.5216,3.5217,3.5216,3.5213,3.5209,3.5208,3.5208,3.5208,0,3.527,3.5261,3.5269,3.5261,3.5259,3.5267,3.526,3.5264,3.5258,3.5263,3.5264,3.5254,3.5256,3.5247,3.5248,3.5242,3.5255,3.525,3.5256,3.5254,3.5266,3.5265,3.5308,3.5313,3.5272,3.5272,3.5273,0,3.5289,3.5296,3.5288,3.529,3.5288,3.5291,3.5292,3.528,3.5281,3.5278,3.5283,3.5285,3.5285,3.5291,3.5283,3.5284,3.5279,3.5294,3.5279,3.5282,3.5278,3.5277,3.5278,3.5297,3.5297,3.5298,3.5298,0,3.5324,3.5319,3.5321,3.5321,3.5322,3.5321,3.532,3.5322,3.531,3.5312,3.5315,3.5315,3.5317,3.5319,3.5318,3.5315,3.5305,3.5303,3.5306,3.5308,3.5311,3.5309,3.5264,3.5302,3.5302,3.5301,3.5301,3.5301,3.535,3.5355,3.5351,3.5353,3.5351,3.535,3.5354,3.5349,3.5351,3.5351,3.5344,3.5348,3.5345,3.5343,3.5342,3.5345,3.5338,3.5342,3.5342,3.5343,3.5345,3.5312,3.5345,3.5345,3.5344,3.5344,3.5344,0,3.5383,3.538,3.5383,3.5381,3.5383,3.5374,3.5372,3.5374,3.5378,3.5375,3.5376,3.538,3.5382,3.5375,3.5376,3.538,3.5375,3.5381,3.538,3.5379,3.5352,3.5349,3.5385,3.5385,3.5385,3.5385,3.5385,3.5385,3.5401,3.5409,3.5404,3.5411,3.5408,3.5411,3.5411,3.5411,3.5409,3.5413,3.5415,3.5411,3.5407,3.5408,3.5409,3.5407,3.5408,3.5415,3.5411,3.5385,3.5381,3.5377,3.5375,3.5415,3.5415,3.5438,3.5438,3.5439]}]]